Weather History for Tulsa Jones, OK

Change the Weather History Date:

Tuesday, January 7, 2014

  Actual Average (KTUL) Record (KTUL)
Temperature  
Mean Temperature 26 °F 37 °F  
Max Temperature 46 °F 47 °F 77 °F (1965)
Min Temperature 7 °F 27 °F -5 °F (1912)
Degree Days  
Heating Degree Days 38 28  
Month to date heating degree days 196  
Since 1 July heating degree days 1624  
Moisture  
Dew Point 11 °F    
Average Humidity 50    
Maximum Humidity 76    
Minimum Humidity 29    
Precipitation  
Precipitation 0.00 in 0.06 in 1.05 in (1935)
Month to date precipitation 0.39  
Year to date precipitation 0.39  
Sea Level Pressure  
Sea Level Pressure 30.36 in    
Wind  
Wind Speed 5 mph (South)    
Max Wind Speed 18 mph    
Max Gust Speed 23 mph    
Visibility 10 miles    
Events      
T = Trace of Precipitation, MM = Missing Value Source: NWS Daily Summary

Daily Weather History Graph

Daily Weather History Graph

Search for Another Location

Airport:

Trip Planner

Search our weather history database for the weather conditions in past years. The results will help you decide how hot, cold, wet, or windy it might be!

Date:

Astronomy

Jan. 07, 2014 Rise Set
Actual Time 7:35 AM CST 5:25 PM CST
Civil Twilight 7:06 AM CST 5:53 PM CST
Nautical Twilight 6:35 AM CST 6:25 PM CST
Astronomical Twilight 6:03 AM CST 6:56 PM CST
Moon 11:38 AM CST (1/7) No Moon Set
Length of Visible Light 10h 47m
Length of Day
9h 50m
Waxing Crescent, 46% of the Moon is Illuminated
Jan 7
Waxing Crescent
Jan 7
First Quarter
Jan 15
Full
Jan 23
Last Quarter
Jan 30
New

Hourly Weather History & Observations

Time (CST) Temp. Windchill Dew Point Humidity Pressure Visibility Wind Dir Wind Speed Gust Speed Precip Events Conditions
12:53 AM 7.0 °F - -0.0 °F 73% 30.54 in 10.0 mi Calm Calm - N/A   Clear
1:53 AM 10.0 °F - -2.0 °F 58% 30.52 in 10.0 mi Calm Calm - N/A   Clear
2:53 AM 12.0 °F - -0.0 °F 59% 30.51 in 10.0 mi Calm Calm - N/A   Clear
3:53 AM 9.0 °F - -0.0 °F 67% 30.49 in 10.0 mi Calm Calm - N/A   Clear
4:53 AM 10.0 °F - 1.9 °F 70% 30.46 in 10.0 mi Calm Calm - N/A   Clear
5:53 AM 10.9 °F 4.7 °F 3.0 °F 70% 30.44 in 10.0 mi South 3.5 mph - N/A   Clear
6:53 AM 10.0 °F - 3.9 °F 76% 30.45 in 10.0 mi Calm Calm - N/A   Clear
7:53 AM 15.1 °F 7.7 °F 7.0 °F 70% 30.45 in 10.0 mi South 4.6 mph - N/A   Clear
8:53 AM 21.0 °F 10.6 °F 10.0 °F 63% 30.44 in 10.0 mi South 9.2 mph - N/A   Clear
9:53 AM 27.0 °F 16.7 °F 12.9 °F 56% 30.43 in 10.0 mi South 11.5 mph - N/A   Clear
10:53 AM 32.0 °F 23.0 °F 15.1 °F 50% 30.40 in 10.0 mi South 11.5 mph - N/A   Clear
11:53 AM 36.0 °F 26.7 °F 16.0 °F 44% 30.35 in 10.0 mi SSW 15.0 mph 20.7 mph N/A   Clear
12:53 PM 39.0 °F 31.4 °F 18.0 °F 43% 30.31 in 10.0 mi South 12.7 mph - N/A   Clear
1:53 PM 45.0 °F 38.9 °F 19.9 °F 37% 30.27 in 10.0 mi South 12.7 mph - N/A   Clear
2:53 PM 46.9 °F - 17.1 °F 30% 30.25 in 10.0 mi South 18.4 mph 23.0 mph N/A   Clear
3:53 PM 46.9 °F - 16.0 °F 29% 30.25 in 10.0 mi South 13.8 mph 21.9 mph N/A   Clear
4:53 PM 45.0 °F 40.1 °F 16.0 °F 31% 30.23 in 10.0 mi South 9.2 mph - N/A   Clear
5:53 PM 42.1 °F 37.7 °F 16.0 °F 35% 30.24 in 10.0 mi South 6.9 mph - N/A   Clear
6:53 PM 39.9 °F 33.9 °F 16.0 °F 38% 30.23 in 10.0 mi South 9.2 mph - N/A   Clear
7:53 PM 37.9 °F 32.7 °F 16.0 °F 41% 30.24 in 10.0 mi South 6.9 mph - N/A   Clear
8:53 PM 37.9 °F 30.5 °F 16.0 °F 41% 30.26 in 10.0 mi South 11.5 mph - N/A   Clear
9:53 PM 37.0 °F 30.4 °F 16.0 °F 42% 30.26 in 10.0 mi South 9.2 mph - N/A   Clear
10:53 PM 37.0 °F 29.8 °F 14.0 °F 39% 30.25 in 10.0 mi South 10.4 mph - N/A   Clear
11:53 PM 36.0 °F 30.3 °F 14.0 °F 41% 30.25 in 10.0 mi South 6.9 mph - N/A   Clear